EW4987 Weather Reports


Display with metric or nautical units.
time (UTC)temp
F
wind
direction
speed
MPH
gust
MPH
rain 1hr
in
rain 24hr
in
rain mn
in
humidity
%
barometer
mb
20260831063042 52 136 0.0 0.0 0.00 0.04 0.00 1 1011.1
20260831061537 52 136 0.0 0.0 0.00 0.04 0.00 1 1011.0
20260831060040 52 136 0.0 0.0 0.00 0.04 0.00 1 1010.8
20260831054529 53 136 0.0 0.0 0.00 0.07 0.04 1 1010.6
20260831053042 54 136 0.0 0.0 0.00 0.07 0.04 1 1010.6
20260831051520 55 136 0.0 0.0 0.00 0.07 0.04 1 1010.4
20260831050015 56 136 0.0 0.0 0.00 0.07 0.04 1 1010.2
20260831044513 56 136 0.0 0.0 0.00 0.07 0.04 1 1009.8
20260831043006 58 136 0.0 0.0 0.00 0.07 0.04 29 1009.5
20260831041502 58 136 0.0 0.0 0.00 0.07 0.04 29 1009.2
20260831040059 58 136 0.0 0.0 0.00 0.07 0.04 33 1009.0
20260831034554 60 136 0.0 0.0 0.00 0.07 0.04 44 1008.7
20260831033054 61 136 0.0 0.0 0.00 0.07 0.04 52 1008.4
20260831031544 62 136 0.0 0.0 0.00 0.07 0.04 53 1008.3
20260831030041 63 136 0.0 0.0 0.00 0.07 0.04 53 1008.0
20260831024536 63 136 0.0 0.0 0.00 0.07 0.04 52 1007.7
20260831023036 64 160 0.0 0.0 0.00 0.07 0.04 53 1007.4
20260831021536 65 232 0.0 0.0 0.00 0.07 0.04 51 1007.2
20260831020049 67 259 0.0 0.0 0.00 0.07 0.04 51 1007.0
20260831014519 69 259 0.0 0.0 0.00 0.07 0.04 47 1007.0
20260831013014 70 259 0.0 1.0 0.00 0.07 0.04 45 1006.8
20260831011510 72 259 0.0 0.0 0.00 0.07 0.04 44 1006.9
20260831010005 73 259 0.0 0.0 0.00 0.07 0.04 41 1007.0
20260831004501 73 237 0.0 0.0 0.00 0.07 0.04 46 1007.0
20260831003057 73 237 0.0 1.0 0.00 0.07 0.04 46 1006.9
20260831001552 72 255 0.0 0.0 0.00 0.07 0.04 48 1007.0
20260831000048 72 255 0.0 0.0 0.00 0.07 0.04 47 1007.3
20260830234547 72 256 0.0 0.0 0.00 0.07 0.04 47 1007.4
20260830233041 72 256 0.0 0.0 0.00 0.07 0.04 46 1007.3
20260830231536 72 256 0.0 0.0 0.00 0.07 0.04 44 1007.3
20260830230031 74 250 0.0 0.0 0.00 0.07 0.04 42 1007.5
20260830224526 73 250 0.0 0.0 0.00 0.08 0.04 42 1007.7
20260830223020 72 238 0.0 0.0 0.00 0.08 0.04 42 1007.7
20260830221516 73 250 0.0 1.0 0.00 0.08 0.04 38 1008.1
20260830220012 74 232 0.0 0.0 0.00 0.08 0.04 33 1008.0
20260830214508 75 235 0.0 0.0 0.00 0.08 0.04 36 1008.0
20260830213005 73 257 0.0 1.0 0.00 0.08 0.04 33 1008.0
20260830211601 74 277 0.0 1.0 0.00 0.08 0.04 36 1008.2
20260830210100 74 227 0.0 1.0 0.00 0.08 0.04 34 1008.4
20260830204556 76 293 0.0 1.0 0.00 0.08 0.04 40 1008.5
20260830203052 74 290 0.0 0.0 0.00 0.08 0.04 40 1008.7
20260830201540 74 240 0.0 0.0 0.00 0.08 0.04 41 1008.7
20260830200037 74 360 0.0 1.0 0.00 0.08 0.04 41 1008.9
20260830194532 73 137 0.0 0.0 0.00 0.08 0.04 42 1009.0
20260830193027 73 184 0.0 0.0 0.00 0.08 0.04 42 1009.3
20260830191528 73 193 0.0 0.0 0.00 0.08 0.04 42 1009.4
20260830190019 72 180 0.0 0.0 0.00 0.08 0.04 43 1009.7
20260830184514 72 142 0.0 1.0 0.00 0.17 0.04 42 1009.9
20260830183010 72 176 0.0 0.0 0.00 0.17 0.04 38 1010.1
20260830181505 71 157 0.0 1.0 0.00 0.17 0.04 32 1010.5
20260830180001 70 145 0.0 1.0 0.00 0.17 0.04 14 1010.9
20260830174601 70 139 0.0 3.0 0.00 0.19 0.04 1 1011.0
20260830173053 68 160 0.0 1.0 0.00 0.19 0.04 1 1011.1
20260830171548 67 151 0.0 1.0 0.00 0.19 0.04 1 1011.1
20260830170043 67 173 0.0 1.0 0.00 0.19 0.04 1 1011.2
20260830164542 66 171 0.0 1.0 0.00 0.28 0.04 1 1011.3
20260830163034 65 150 0.0 0.0 0.00 0.28 0.04 1 1011.2
20260830161539 64 150 0.0 1.0 0.00 0.28 0.04 1 1011.4
20260830160027 62 171 0.0 3.0 0.00 0.28 0.04 1 1011.5
20260830154532 61 157 0.0 0.0 0.00 0.40 0.04 1 1011.5
20260830153024 60 149 0.0 2.0 0.00 0.40 0.04 1 1011.7
20260830151520 58 179 0.0 1.0 0.00 0.40 0.04 1 1012.1
20260830150019 57 98 0.0 0.0 0.00 0.40 0.04 1 1012.0
20260830144517 55 98 0.0 0.0 0.00 0.52 0.04 1 1012.1
20260830143022 54 98 0.0 0.0 0.00 0.52 0.04 1 1012.0
20260830141510 54 98 0.0 1.0 0.01 0.52 0.04 1 1012.2
20260830140004 54 82 0.0 0.0 0.01 0.52 0.04 1 1011.8
20260830134600 54 82 0.0 0.0 0.01 0.52 0.04 1 1011.5
20260830133055 54 83 0.0 0.0 0.01 0.52 0.04 1 1011.8
20260830131551 54 83 0.0 0.0 0.02 0.51 0.03 1 1011.9
20260830130105 54 83 0.0 0.0 0.03 0.51 0.03 1 1011.5
20260830124544 54 83 0.0 0.0 0.03 0.51 0.03 1 1011.4
20260830123039 55 83 0.0 3.0 0.03 0.51 0.03 1 1011.1
20260830121537 55 305 0.0 0.0 0.01 0.49 0.01 1 1011.6
20260830120031 54 305 0.0 0.0 0.00 0.48 0.00 1 1011.4
20260830114555 54 297 0.0 0.0 0.00 0.49 0.00 1 1010.1
20260830113022 55 297 0.0 0.0 0.00 0.49 0.00 1 1009.9
20260830111518 55 297 0.0 0.0 0.00 0.49 0.00 1 1010.0
20260830110013 55 297 0.0 0.0 0.00 0.49 0.00 1 1010.3
20260830104509 56 297 0.0 0.0 0.00 0.50 0.00 1 1010.6
20260830103004 57 297 0.0 0.0 0.00 0.50 0.00 1 1010.2
20260830101608 58 152 0.0 1.0 0.00 0.50 0.00 1 1010.3
20260830100056 58 149 0.0 0.0 0.00 0.50 0.00 1 1010.5
20260830094550 58 142 0.0 0.0 0.00 0.50 0.00 1 1010.3
20260830093046 58 139 0.0 1.0 0.00 0.50 0.00 1 1010.1
20260830091543 58 153 0.0 0.0 0.00 0.50 0.00 1 1010.1
20260830090040 58 151 0.0 1.0 0.00 0.50 0.00 1 1009.7
20260830084533 59 152 0.0 0.0 0.00 0.50 0.00 1 1010.2
20260830083030 59 156 0.0 0.0 0.00 0.50 0.00 1 1010.3
20260830081524 59 181 0.0 0.0 0.00 0.50 0.00 1 1010.1
20260830080020 59 184 0.0 0.0 0.00 0.50 0.00 1 1009.7
20260830074515 60 175 0.0 1.0 0.00 0.50 0.00 1 1010.1
20260830073012 59 165 0.0 1.0 0.00 0.50 0.00 1 1010.0
20260830071511 60 145 0.0 0.0 0.00 0.50 0.00 1 1009.8
20260830070002 59 162 0.0 2.0 0.00 0.50 0.00 1 1009.6
20260830064559 59 143 0.0 1.0 0.00 0.52 0.00 1 1009.2